This is the latest recevied weather packets stored in our database for station/object N6WDO. If no packets are shown the sender has not sent any weather packets the latest 10 day(s).
| Time | Temp. | Humidity | Pressure | Rain* | Wind** | Luminosity | Snow |
|---|---|---|---|---|---|---|---|
| 1778035477 | 10.56° C | 87% | 1016.9 hPa | 0 mm | - | 5 W/m² | - |
| 1778035173 | 11.11° C | 85% | 1016.9 hPa | 0 mm | - | 7 W/m² | - |
| 1778034870 | 11.67° C | 85% | 1016.7 hPa | 0 mm | - | 9 W/m² | - |
| 1778034566 | 11.67° C | 84% | 1016.9 hPa | 0 mm | - | 12 W/m² | - |
| 1778034264 | 12.22° C | 81% | 1016.7 hPa | 0 mm | - | 14 W/m² | - |
| 1778033962 | 12.22° C | 82% | 1016.6 hPa | 0 mm | - | 17 W/m² | - |
| 1778033659 | 12.78° C | 83% | 1016.9 hPa | 0 mm | - | 19 W/m² | - |
| 1778033356 | 13.33° C | 82% | 1016.7 hPa | 0 mm | - | 20 W/m² | - |
| 1778033054 | 13.33° C | 76% | 1016.7 hPa | 0 mm | - | 22 W/m² | - |
| 1778032751 | 13.89° C | 76% | 1016.7 hPa | 0 mm | - | 25 W/m² | - |
| 1778032448 | 13.89° C | 76% | 1016.6 hPa | 0 mm | - | 32 W/m² | - |
| 1778032145 | 13.89° C | 75% | 1016.8 hPa | 0 mm | - | 36 W/m² | - |
| 1778031842 | 13.89° C | 74% | 1016.6 hPa | 0 mm | - | 39 W/m² | - |
| 1778031539 | 13.89° C | 73% | 1016.6 hPa | 0 mm | - | 41 W/m² | - |
| 1778031237 | 13.89° C | 73% | 1016.6 hPa | 0 mm | - | 38 W/m² | - |
| 1778030932 | 13.89° C | 72% | 1016.6 hPa | 0 mm | - | 37 W/m² | - |
| 1778030629 | 13.89° C | 71% | 1016.9 hPa | 0 mm | - | 40 W/m² | - |
| 1778030326 | 14.44° C | 73% | 1016.6 hPa | 0 mm | - | 40 W/m² | - |
| 1778030023 | 14.44° C | 72% | 1016.7 hPa | 0 mm | - | 34 W/m² | - |
| 1778029720 | 14.44° C | 72% | 1016.8 hPa | 0 mm | - | 31 W/m² | - |
| 1778029419 | 14.44° C | 75% | 1016.7 hPa | 0 mm | - | 34 W/m² | - |
| 1778029115 | 14.44° C | 73% | 1016.8 hPa | 0 mm | - | 40 W/m² | - |
| 1778028812 | 14.44° C | 73% | 1016.7 hPa | 0 mm | - | 45 W/m² | - |
| 1778028508 | 14.44° C | 73% | 1016.6 hPa | 0 mm | - | 50 W/m² | - |
| 1778028206 | 15° C | 72% | 1016.7 hPa | 0 mm | - | 61 W/m² | - |
* Rain latest hour (hover to see other rain measurements)
** Current wind speed in m/s (hover to see current wind gust speed)